Home > Weather > Pattaya > Past weeks

Flag for Thailand Weather for the Past 2 Weeks in Pattaya, Thailand

Now
54 °F

Clear.


Feels Like: 52 °F
Forecast: 67 / 79 °F
Wind: 7 mph from Northeast

Location: Khon Kaen Airport

Current Time: Feb 7, 2016 at 6:35:37 AM

Latest Report: Feb 7, 2016 at 6:00 AM


Visibility: 10 mi

Pressure: 30.18 "Hg

Humidity: 63%

Dew point: 41 °F

Location of PattayaLocation

Historic Weather in Pattaya — Graph

°F

Pattaya Temperature Yesterday

Maximum temperature yesterday: 77 °F (at 2:00 PM)
Minimum temperature yesterday: 63 °F (at 5:00 AM)
Average temperature yesterday: 69 °F

High & Low Weather Summary for the Past Weeks

 TemperatureHumidityPressure
High93 °F (Jan 31, 4:00 PM)94% (Jan 24, 12:00 PM)30.33 "Hg (Jan 24, 12:00 PM)
Low48 °F (Jan 25, 5:00 AM)29% (Feb 4, 2:00 PM)29.77 "Hg (Jan 31, 4:00 PM)
Average71 °F62%30.02 "Hg
* Reported Jan 23 5:00 AM — Feb 7 5:00 AM, Pattaya, Weather by CustomWeather, © 2016

Note: Actual official high and low records may vary slightly from our data, if they occured in-between our weather recording intervals... More about our weather records

Advertising

Pattaya Weather History for the Previous 24 Hours

 ConditionsComfort  
Time TempWeatherWind HumidityBarometerVisibility
5:00 AM
Sun, Feb 7
54 °FClear.7 mph63%30.18 "Hg10 mi
3:00 AM59 °FClear.7 mph59%30.18 "Hg10 mi
2:00 AM59 °FClear.8 mphN/A30.18 "Hg10 mi
1:00 AM59 °FClear.7 mph63%30.18 "Hg10 mi
11:00 PM
Sat, Feb 6
63 °FClear.8 mph56%30.18 "Hg10 mi
10:00 PM64 °FClear.13 mph52%30.15 "Hg10 mi
9:00 PM68 °FClear.12 mph43%30.12 "Hg10 mi
8:00 PM70 °FClear.10 mph40%30.09 "Hg10 mi
7:00 PM72 °FClear.10 mph38%30.07 "Hg6 mi
6:00 PM73 °FClear.12 mph36%30.04 "Hg6 mi
5:00 PM77 °FClear.8 mph32%30.01 "Hg6 mi
4:00 PM77 °FClear.10 mph34%30.01 "Hg6 mi
3:00 PM77 °FClear.10 mph34%30.04 "Hg6 mi
2:00 PM77 °FClear.13 mph34%30.07 "Hg6 mi
1:00 PM75 °FClear.12 mph34%30.09 "Hg6 mi
12:00 PM75 °FClear.13 mph34%30.12 "Hg6 mi
11:00 AM72 °FClear.17 mph41%30.15 "Hg6 mi
10:00 AM70 °FPassing clouds.13 mph43%30.18 "HgN/A
9:00 AM66 °FPassing clouds.14 mph52%30.15 "HgN/A
8:00 AM63 °FPassing clouds.9 mph59%30.09 "Hg6 mi
7:00 AM63 °FPassing clouds.9 mph59%30.09 "Hg6 mi
6:00 AM63 °FPassing clouds.10 mph59%30.07 "HgN/A
Weather by CustomWeather, © 2016

See weather overviewHow to use our weather pages